SV7GBF-2 Weather Reports


time (UTC)temp
F
wind
direction
speed
knots
gust
knots
rain 1hr
in
rain 24hr
in
rain mn
in
humidity
%
barometer
mb
20260504020404 46 0 0.0 0.0 0.00 0.00 0.00 49
20260504015403 46 0 0.0 0.0 0.00 0.00 0.00 45
20260504014403 46 0 0.0 0.0 0.00 0.00 0.00 47
20260504013404 46 0 0.0 0.0 0.00 0.00 0.00 43
20260504011404 48 0 0.0 0.0 0.00 0.00 0.00 38
20260504010405 48 0 0.0 0.0 0.00 0.00 0.00 37
20260504005104 50 0 0.0 0.0 0.00 0.00 0.00 29
20260504004104 51 0 0.0 0.0 0.00 0.00 0.00 28
20260504003103 51 0 0.0 0.0 0.00 0.00 0.00 28
20260504002103 50 0 0.0 0.0 0.00 0.00 0.00 29
20260504001105 50 0 0.0 0.0 0.00 0.00 0.00 29
20260504000403 51 0 0.0 0.0 0.00 0.00 0.00 29
20260503234905 49 0 0.0 0.0 0.00 0.00 0.00 33
20260503233905 48 0 0.0 0.0 0.00 0.00 0.00 37
20260503232904 48 0 0.0 0.0 0.00 0.00 0.00 38
20260503231903 48 0 0.0 0.0 0.00 0.00 0.00 37
20260503230903 48 0 0.0 0.0 0.00 0.00 0.00 37
20260503230405 48 0 0.0 0.0 0.00 0.00 0.00 37
20260503225404 48 0 0.0 0.0 0.00 0.00 0.00 37
20260503224404 49 0 0.0 0.0 0.00 0.00 0.00 31
20260503223404 50 0 0.0 0.0 0.00 0.00 0.00 30
20260503222404 50 0 0.0 0.0 0.00 0.00 0.00 30
20260503221404 51 0 0.0 0.0 0.00 0.00 0.00 27
20260503220403 50 0 0.0 0.0 0.00 0.00 0.00 29
20260503215403 50 0 0.0 0.0 0.00 0.00 0.00 30
20260503214404 52 0 0.0 0.0 0.00 0.00 0.00 26
20260503213406 53 0 0.0 0.0 0.00 0.00 0.00 18
20260503212404 53 0 0.0 0.0 0.00 0.00 0.00 18
20260503211404 53 0 0.0 0.0 0.00 0.00 0.00 18
20260503210404 53 0 0.0 0.0 0.00 0.00 0.00 18
20260503205405 53 0 0.0 0.0 0.00 0.00 0.00 18
20260503204404 54 0 0.0 0.0 0.00 0.00 0.00 18
20260503203404 54 0 0.0 0.0 0.00 0.00 0.00 15
20260503202404 54 0 0.0 0.0 0.00 0.00 0.00 15
20260503201404 55 0 0.0 0.0 0.00 0.00 0.00 15
20260503200403 55 0 0.0 0.0 0.00 0.00 0.00 15
20260503195403 55 0 0.0 0.0 0.00 0.00 0.00 15
20260503194404 55 0 0.0 0.0 0.00 0.00 0.00 15
20260503193405 56 0 0.0 0.0 0.00 0.00 0.00 15
20260503192404 56 0 0.0 0.0 0.00 0.00 0.00 15
20260503191403 56 0 0.0 0.0 0.00 0.00 0.00 17
20260503190404 56 0 0.0 0.0 0.00 0.00 0.00 15
20260503185404 57 0 0.0 0.0 0.00 0.00 0.00 14
20260503184404 57 0 0.0 0.0 0.00 0.00 0.00 17
20260503183404 57 0 0.0 0.0 0.00 0.00 0.00 14
20260503182404 58 0 0.0 0.0 0.00 0.00 0.00 14
20260503181404 58 0 0.0 0.0 0.00 0.00 0.00 14
20260503180404 58 0 0.0 0.0 0.00 0.00 0.00 14
20260503175404 59 0 0.0 0.0 0.00 0.00 0.00 14
20260503174404 60 0 0.0 0.0 0.00 0.00 0.00 14
20260503173404 60 0 0.0 0.0 0.00 0.00 0.00 14
20260503172404 60 0 0.0 0.0 0.00 0.00 0.00 14
20260503171403 60 0 0.0 0.0 0.00 0.00 0.00 14
20260503170404 60 0 0.0 0.0 0.00 0.00 0.00 14
20260503150407 63 0 0.0 0.0 0.00 0.00 0.00 13
20260503131406 64 0 0.0 0.0 0.00 0.00 0.00 13
20260503130407 66 0 0.0 0.0 0.00 0.00 0.00 13
20260503090404 58 0 0.0 0.0 0.00 0.00 0.00 14
20260503081404 55 0 0.0 0.0 0.00 0.00 0.00 20
20260503080404 55 0 0.0 0.0 0.00 0.00 0.00 20
20260503072404 54 0 0.0 0.0 0.00 0.00 0.00 25
20260503071404 54 0 0.0 0.0 0.00 0.00 0.00 26
20260503070404 54 0 0.0 0.0 0.00 0.00 0.00 26
20260503054404 51 0 0.0 0.0 0.00 0.00 0.00 35
20260503053404 50 0 0.0 0.0 0.00 0.00 0.00 35
20260503052404 50 0 0.0 0.0 0.00 0.00 0.00 37
20260503051403 50 0 0.0 0.0 0.00 0.00 0.00 38
20260503050404 50 0 0.0 0.0 0.00 0.00 0.00 38
20260503045404 50 0 0.0 0.0 0.00 0.00 0.00 38
20260503044404 49 0 0.0 0.0 0.00 0.00 0.00 38
20260503043404 50 0 0.0 0.0 0.00 0.00 0.00 37
20260503042405 50 0 0.0 0.0 0.00 0.00 0.00 36
20260503041405 50 0 0.0 0.0 0.00 0.00 0.00 36
20260503035406 49 0 0.0 0.0 0.00 0.00 0.00 37
20260503034403 49 0 0.0 0.0 0.00 0.00 0.00 35
20260503033404 49 0 0.0 0.0 0.00 0.00 0.00 34
20260503031405 49 0 0.0 0.0 0.00 0.00 0.00 37
20260503030405 49 0 0.0 0.0 0.00 0.00 0.00 37
20260503025404 49 0 0.0 0.0 0.00 0.00 0.00 37
20260503024405 49 0 0.0 0.0 0.00 0.00 0.00 38
20260503022406 49 0 0.0 0.0 0.00 0.00 0.00 39
20260503021403 49 0 0.0 0.0 0.00 0.00 0.00 40